Weather History for Kansas City, MO

Change the Weather History Date:

Monday, November 19, 2012

  Actual Average Record
Temperature  
Mean Temperature 57 °F -  
Max Temperature 64 °F 51 °F 77 °F (2007)
Min Temperature 48 °F 34 °F 27 °F (2006)
Degree Days  
Heating Degree Days 8    
Growing Degree Days 7 (Base 50)    
Moisture  
Dew Point 44 °F    
Average Humidity 64    
Maximum Humidity 86    
Minimum Humidity 39    
Precipitation  
Precipitation 0.00 in - - ()
Sea Level Pressure  
Sea Level Pressure 30.10 in    
Wind  
Wind Speed 10 mph (SSW)    
Max Wind Speed 17 mph    
Max Gust Speed 28 mph    
Visibility 10 miles    
Events      
Averages and records for this station are not official NWS values.
T = Trace of Precipitation, MM = Missing Value Source: NWS Daily Summary

Daily Weather History Graph

Daily Weather History Graph

Search for Another Location

Airport:

Trip Planner

Search our weather history database for the weather conditions in past years. The results will help you decide how hot, cold, wet, or windy it might be!

Date:

Astronomy

Nov. 19, 2012 Rise Set
Actual Time 7:06 AM CST 5:00 PM CST
Civil Twilight 6:37 AM CST 5:29 PM CST
Nautical Twilight 6:05 AM CST 6:02 PM CST
Astronomical Twilight 5:33 AM CST 6:34 PM CST
Moon 12:10 PM CST 11:27 PM CST
Length of Visible Light 10h 52m
Length of Day
9h 54m
Waxing Crescent, 41% of the Moon is Illuminated
Nov 19
Waxing Crescent
Nov 20
First Quarter
Nov 28
Full
Dec 6
Last Quarter
Dec 13
New

Hourly Weather History & Observations

Time (CST) Temp. Dew Point Humidity Pressure Visibility Wind Dir Wind Speed Gust Speed Precip Events Conditions
12:54 AM 57.0 °F 32.0 °F 39% 30.14 in 10.0 mi South 10.4 mph 18.4 mph N/A   Clear
1:54 AM 57.0 °F 33.1 °F 40% 30.14 in 10.0 mi South 13.8 mph 19.6 mph N/A   Mostly Cloudy
2:54 AM 55.0 °F 37.9 °F 53% 30.14 in 10.0 mi SSW 17.3 mph 27.6 mph N/A   Mostly Cloudy
3:54 AM 53.1 °F 42.1 °F 66% 30.12 in 10.0 mi South 13.8 mph 23.0 mph N/A   Overcast
4:54 AM 51.1 °F 43.0 °F 74% 30.12 in 10.0 mi South 11.5 mph - N/A   Mostly Cloudy
5:54 AM 50.0 °F 43.0 °F 77% 30.13 in 10.0 mi South 9.2 mph - N/A   Scattered Clouds
6:54 AM 51.1 °F 43.0 °F 74% 30.13 in 10.0 mi SSW 9.2 mph - N/A   Overcast
7:54 AM 52.0 °F 43.0 °F 71% 30.14 in 10.0 mi South 15.0 mph - N/A   Overcast
8:54 AM 54.0 °F 44.1 °F 69% 30.14 in 10.0 mi SSW 13.8 mph - N/A   Partly Cloudy
9:54 AM 57.0 °F 43.0 °F 59% 30.14 in 10.0 mi SSW 15.0 mph 26.5 mph N/A   Clear
10:54 AM 60.1 °F 44.1 °F 55% 30.13 in 10.0 mi SSW 11.5 mph - N/A   Clear
11:54 AM 63.0 °F 45.0 °F 52% 30.10 in 10.0 mi SW 12.7 mph - N/A   Clear
12:54 PM 64.0 °F 45.0 °F 50% 30.06 in 10.0 mi SSW 10.4 mph - N/A   Clear
1:54 PM 64.9 °F 46.0 °F 50% 30.05 in 10.0 mi SW 9.2 mph - N/A   Clear
2:54 PM 64.9 °F 46.9 °F 52% 30.04 in 10.0 mi SSW 8.1 mph - N/A   Clear
3:54 PM 64.0 °F 46.9 °F 54% 30.06 in 10.0 mi SW 6.9 mph - N/A   Clear
4:54 PM 61.0 °F 46.9 °F 60% 30.06 in 10.0 mi SSW 6.9 mph - N/A   Clear
5:54 PM 57.9 °F 46.0 °F 65% 30.06 in 10.0 mi South 4.6 mph - N/A   Clear
6:54 PM 57.0 °F 46.9 °F 69% 30.09 in 10.0 mi Calm Calm - N/A   Clear
7:54 PM 54.0 °F 46.0 °F 75% 30.09 in 10.0 mi Calm Calm - N/A   Clear
8:54 PM 53.6 °F 46.4 °F 77% 30.09 in 10.0 mi WSW 4.6 mph - N/A   Clear
9:54 PM 54.0 °F 46.9 °F 77% 30.09 in 10.0 mi Variable 3.5 mph - N/A   Clear
10:54 PM 52.0 °F 46.0 °F 80% 30.09 in 10.0 mi SW 4.6 mph - N/A   Clear
11:54 PM 48.9 °F 45.0 °F 86% 30.10 in 7.0 mi Calm Calm - N/A   Clear